Terminal Aerodrome Forecast
Issued by NWS Twin Cities, MN

Home | Current Version | Previous Version | Graphics & Text | Print | Product List | Glossary On
Versions: 1 2 3 4 5 6 7 8 9 10 11 12 13 14 15 16 17 18 19 20 21 22 23 24
000
FTUS43 KMPX 251700
TAFMSP
TAF
KMSP 251720Z 2518/2624 25009KT P6SM SCT250
     FM251900 27010G17KT P6SM SCT250
     FM260100 29007KT P6SM SCT150 BKN250
     FM260700 33006KT P6SM SCT150 SCT250=

USA.gov is the U.S. government's official web portal to all federal, state and local government web resources and services.